Regional Weather Roundup
Issued by NWS

Current Version | Previous Version | Text Only | Print | Product List | Glossary On
Versions: 1 2 3 4 5 6 7 8 9 10 11 12 13 14 15 16 17 18 19 20 21 22 23 24 25 26 27 28 29 30 31 32 33 34 35 36 37 38 39 40 41 42 43 44 45 46 47 48 49 50
000
ASUS43 KMPX 160201
RWRMN
WEATHER ROUNDUP FOR MINNESOTA
NATIONAL WEATHER SERVICE TWIN CITIES/CHANHASSEN MN
900 PM CDT MON SEP 15 2014


NOTE: "FAIR" INDICATES FEW OR NO CLOUDS BELOW 12,000 FEET WITH NO
SIGNIFICANT WEATHER AND/OR OBSTRUCTIONS TO VISIBILITY. N/A MEANS
CURRENT SKY AND/OR WEATHER CONDITIONS ARE NOT AVAILABLE.

MNZ060>063-068>070-160300-
   Twin Cities Metro

CITY           SKY/WX    TMP DP  RH WIND       PRES   REMARKS
TWIN CITIES    CLEAR     51  42  71 W3        30.21R
ST PAUL        CLEAR     49  43  80 CALM      30.22R
CRYSTAL        CLEAR     49  41  74 CALM      30.20R
BLAINE         CLEAR     48  45  87 CALM      30.21R
LAKEVILLE      CLEAR     45  43  93 CALM      30.22R
EDEN PRAIRIE   CLEAR     52  41  66 W3        30.20S
SOUTH ST PAUL  CLEAR     50  42  74 CALM      30.21R
LAKE ELMO      FAIR      45  43  93 CALM      30.22R
$$
MNZ001>005-007-008-013>017-022>024-027-028-160300-
   Northwest Minnesota

CITY           SKY/WX    TMP DP  RH WIND       PRES   REMARKS
BEMIDJI        CLEAR     49  39  67 S6        30.12S
HALLOCK        CLEAR     50  43  76 SW3       30.05S
ROSEAU         PTCLDY    48  41  76 S5        30.05F
WARROAD        PTCLDY    50  41  71 S3        30.06S
THIEF RVR FALL CLEAR     48  39  71 S9        30.08S
CROOKSTON      CLEAR     50  43  76 SW7       30.10S
FOSSTON        CLEAR     45  37  76 S8        30.12F
DETROIT LAKES  CLEAR     52  41  66 SW6       30.16F
MOORHEAD       CLEAR     55  43  62 SW8       30.15S
PARK RAPIDS    CLEAR     45  38  76 S7        30.15S
MAHNOMEN       FAIR      48  38  69 S9        30.13S
$$
MNZ006-009>011-018-025>026-160300-
   North Central Minnesota

CITY           SKY/WX    TMP DP  RH WIND       PRES   REMARKS
BAUDETTE       PTCLDY    46  41  82 CALM      30.06F
FLAG ISLAND    CLEAR     54  43  66 SW8       30.03S
INTL FALLS     CLEAR     38  36  92 CALM      30.08F
WASKISH        MOCLDY    48  43  81 CALM      30.09F
BIG FORK       CLEAR     43  39  87 SW1       30.13S
LONGVILLE      CLEAR     39  39 100 CALM      30.15S
GRAND RAPIDS   CLEAR     43  37  81 S6        30.14S
CRANE LAKE     CLEAR     41  37  87 S5        30.12S
ORR            CLEAR     45  36  70 CALM      30.09S
COOK           CLEAR     41  37  87 CALM      30.12F
WALKER         FAIR      46  38  75 CALM      30.14S
$$
MNZ012-019>021-037-160300-
   Northeast Minnesota

CITY           SKY/WX    TMP DP  RH WIND       PRES   REMARKS
DULUTH         PTCLDY    45  36  70 W7        30.15S
ELY            CLEAR     43  37  81 SW3       30.11S
HIBBING        CLEAR     39  36  89 CALM      30.14R
EVELETH        CLEAR     41  37  87 CALM      30.14S
DULUTH HARBOR  CLEAR     52  43  71 SW6       30.16S
TWO HARBORS    CLEAR     43  37  81 W3        30.13S
SILVER BAY     CLEAR     39  39 100 CALM      30.12S
GRAND MARAIS     N/A     48  40  73 NW5       30.10S
G MARAIS ARPRT CLEAR     41  36  81 SW3       30.11F
$$
MNZ029>031-032-039>041-046>048-054>057-064-160300-
   West Central Minnesota

CITY           SKY/WX    TMP DP  RH WIND       PRES   REMARKS
FERGUS FALLS   CLEAR     48  37  66 S6        30.18S
WHEATON        CLEAR     46  36  66 S7        30.21S
MORRIS         FAIR      46  39  76 CALM      30.19F
ALEXANDRIA     CLEAR     49  40  71 S5        30.20S
ELBOW LAKE     FAIR      49  38  67 S6        30.19S
WADENA         CLEAR     45  37  76 S5        30.17F
GLENWOOD       CLEAR     46  39  76 S5        30.21S
APPLETON       CLEAR     46  43  87 CALM      30.20S
BENSON         CLEAR     45  39  81 CALM      30.21S
ORTONVILLE     CLEAR     50  37  62 S3        30.20S
MADISON        CLEAR     48  45  87 CALM      30.21S
WILLMAR        FAIR      48  41  76 CALM      30.23S
$$
MNZ033>034-036-042>043-049>051-058-059-160300-
   Central Minnesota

CITY           SKY/WX    TMP DP  RH WIND       PRES   REMARKS
ST CLOUD       CLEAR     48  42  80 CALM      30.20S
SAUK CENTRE    FAIR      43  38  83 S3        30.21S
PAYNESVILLE    CLEAR     42  39  90 CALM      30.21S
AITKIN         CLEAR     43  37  81 CALM      30.16S
PINE RIVER     CLEAR     43  37  81 CALM      30.19F
BRAINERD       CLEAR     41  39  93 S5        30.18S
STAPLES        CLEAR     45  37  76 SW3       30.18S
LONG PRAIRIE   FAIR      43  39  87 CALM      30.20S
LITTLE FALLS   CLEAR     43  39  87 CALM      30.20S
LITCHFIELD     CLEAR     48  46  93 CALM      30.22S
BUFFALO        CLEAR     48  42  80 CALM      30.21S
MAPLE LAKE     CLEAR     46  43  90 CALM      30.22R
$$
MNZ037-044-045-052-053-160300-
   East Central Minnesota

CITY           SKY/WX    TMP DP  RH WIND       PRES   REMARKS
PRINCETON      CLEAR     45  41  87 CALM      30.20S
MORA           CLEAR     41  37  87 CALM      30.21S
CAMBRIDGE      CLEAR     48  39  71 CALM      30.19S
RUSH CITY      PTCLDY    41  39  91 CALM      30.20S
MOOSE LAKE     CLEAR     41  37  87 CALM      30.16S
HINCKLEY       FAIR      41  39  93 CALM      30.19R
CLOQUET        CLEAR     43  37  81 SW3       30.16S
MCGREGOR       CLEAR     45  37  76 S3        30.17S
$$
MNZ071>073-080-081-089-090-097-098-160300-
   Southwest Minnesota

CITY           SKY/WX    TMP DP  RH WIND       PRES   REMARKS
MONTEVIDEO     CLEAR     48  36  61 CALM      30.22S
GRANITE FALLS  CLEAR     44  40  86 CALM      30.23S
CANBY          CLEAR     47  43  88 CALM      30.23R
MARSHALL       CLEAR     46  39  76 CALM      30.22R
REDWOOD FALLS  CLEAR     53  37  54 W3        30.22R
OLIVIA         CLEAR     50  41  71 CALM      30.21S
PIPESTONE      CLEAR     50  43  76 CALM      30.23S
WINDOM         CLEAR     46  43  87 CALM      30.24R
WORTHINGTON    CLEAR     48  43  81 CALM      30.25R
JACKSON        CLEAR     45  41  87 CALM      30.25R
TRACY          CLEAR     49  43  79 CALM      30.23S
SLAYTON        CLEAR     47  42  81 CALM      30.24S
$$
MNZ065>067-074>077-082>085-091>093-160300-
   South Central Minnesota

CITY           SKY/WX    TMP DP  RH WIND       PRES   REMARKS
MANKATO        CLEAR     52  37  58 CALM      30.22S
NEW ULM        CLEAR     48  45  87 CALM      30.23R
ST JAMES       CLEAR     48  43  81 CALM      30.24S
FAIRMONT       CLEAR     48  37  66 CALM      30.24R
GLENCOE        CLEAR     49  42  76 CALM      30.21R
FARIBAULT      CLEAR     46  39  76 CALM      30.23R
OWATONNA       CLEAR     45  41  87 CALM      30.23R
WASECA         CLEAR     41  37  87 CALM      30.24S
ALBERT LEA     CLEAR     46  45  93 CALM      30.23R
$$
MNZ078>079-086>088-094>096-160300-
   Southeast Minnesota

CITY           SKY/WX    TMP DP  RH WIND       PRES   REMARKS
ROCHESTER      CLEAR     48  40  73 W6        30.23R
RED WING       CLEAR     46  43  87 CALM      30.21R
STANTON        CLEAR     45  41  88 CALM      30.21R
DODGE CENTER   CLEAR     46  43  87 W3        30.23R
WINONA         CLEAR     48  45  87 CALM      30.22R
AUSTIN         CLEAR     46  43  87 CALM      30.23R
PRESTON        CLEAR     48  45  88 CALM      30.22S
$$
ABBREVIATIONS USED IN REMARKS
   TC - TEMPERATURES IN CELSIUS
  WCI - WIND CHILL INDEX
   HX - HEAT INDEX
  VSB - VISIBILITY
$$


USA.gov is the U.S. government's official web portal to all federal, state and local government web resources and services.